Time,TemperatureF,DewpointF,PressureIn,WindDirection,WindDirectionDegrees,WindSpeedMPH,WindSpeedGustMPH,Humidity,HourlyPrecipIn,Conditions,Clouds,dailyrainin,SoftwareType,DateUTC
2013-10-06 00:04:00,59.0,19.1,30.00,NNW,334,0.0,0.0,21,0.00,,CLR,0.00,VWS V14.01,2013-10-06 07:04:00,
2013-10-06 00:09:00,58.8,19.0,30.00,NNW,334,0.0,0.0,21,0.00,,CLR,0.00,VWS V14.01,2013-10-06 07:09:00,
2013-10-06 00:15:00,58.4,19.8,30.00,NNW,334,0.0,0.0,22,0.00,,CLR,0.00,VWS V14.01,2013-10-06 07:15:00,
2013-10-06 00:20:00,58.3,19.6,30.00,NNW,334,0.0,0.0,22,0.00,,CLR,0.00,VWS V14.01,2013-10-06 07:20:00,
2013-10-06 00:25:00,58.3,19.6,30.00,NNW,334,0.0,0.0,22,0.00,,CLR,0.00,VWS V14.01,2013-10-06 07:25:00,
2013-10-06 00:30:00,58.1,19.5,30.00,NNW,334,0.0,0.0,22,0.00,,CLR,0.00,VWS V14.01,2013-10-06 07:30:00,
2013-10-06 00:36:00,57.9,19.3,30.00,NNW,334,0.0,0.0,22,0.00,,CLR,0.00,VWS V14.01,2013-10-06 07:36:00,
2013-10-06 00:41:00,57.7,21.2,30.00,NNW,334,0.0,0.0,24,0.00,,CLR,0.00,VWS V14.01,2013-10-06 07:41:00,
2013-10-06 00:47:00,57.7,21.2,30.00,NNW,334,0.0,0.0,24,0.00,,CLR,0.00,VWS V14.01,2013-10-06 07:47:00,
2013-10-06 00:53:00,57.5,22.0,30.00,NNW,334,0.0,0.0,25,0.00,,CLR,0.00,VWS V14.01,2013-10-06 07:53:00,
2013-10-06 00:59:00,57.4,21.9,30.00,NNW,334,0.0,0.0,25,0.00,,CLR,0.00,VWS V14.01,2013-10-06 07:59:00,
2013-10-06 01:04:00,57.2,21.7,30.00,NNW,334,0.0,0.0,25,0.00,,CLR,0.00,VWS V14.01,2013-10-06 08:04:00,
2013-10-06 01:09:00,57.2,21.7,30.00,NNW,334,0.0,0.0,25,0.00,,CLR,0.00,VWS V14.01,2013-10-06 08:09:00,
2013-10-06 01:14:00,56.8,22.3,30.00,NNW,334,0.0,0.0,26,0.00,,CLR,0.00,VWS V14.01,2013-10-06 08:14:00,
2013-10-06 01:20:00,56.8,22.3,30.00,NNW,334,0.0,0.0,26,0.00,,CLR,0.00,VWS V14.01,2013-10-06 08:20:00,
2013-10-06 01:25:00,56.6,22.2,30.00,NNW,334,0.0,0.0,26,0.00,,CLR,0.00,VWS V14.01,2013-10-06 08:25:00,
2013-10-06 01:31:00,56.6,21.2,30.00,NNW,334,0.0,0.0,25,0.00,,CLR,0.00,VWS V14.01,2013-10-06 08:31:00,
2013-10-06 01:37:00,56.6,21.2,30.00,NNW,334,0.0,0.0,25,0.00,,CLR,0.00,VWS V14.01,2013-10-06 08:37:00,
2013-10-06 01:42:00,56.5,21.1,30.00,NNW,334,0.0,0.0,25,0.00,,CLR,0.00,VWS V14.01,2013-10-06 08:42:00,
2013-10-06 01:48:00,56.3,20.9,30.00,NNW,334,0.0,0.0,25,0.00,,CLR,0.00,VWS V14.01,2013-10-06 08:48:00,
2013-10-06 01:53:00,56.1,21.7,30.00,NNW,334,0.0,0.0,26,0.00,,CLR,0.00,VWS V14.01,2013-10-06 08:53:00,
2013-10-06 01:58:00,56.1,21.7,30.00,NNW,334,0.0,0.0,26,0.00,,CLR,0.00,VWS V14.01,2013-10-06 08:58:00,
2013-10-06 02:03:00,55.9,21.5,30.00,NNW,334,0.0,0.0,26,0.00,,CLR,0.00,VWS V14.01,2013-10-06 09:03:00,
2013-10-06 02:08:00,55.7,21.4,30.00,NNW,334,0.0,0.0,26,0.00,,CLR,0.00,VWS V14.01,2013-10-06 09:08:00,
2013-10-06 02:14:00,55.9,21.5,30.00,NNW,334,0.0,0.0,26,0.00,,CLR,0.00,VWS V14.01,2013-10-06 09:14:00,
2013-10-06 02:18:00,55.7,21.4,30.00,NNW,334,0.0,0.0,26,0.00,,CLR,0.00,VWS V14.01,2013-10-06 09:18:00,
2013-10-06 02:24:00,55.6,21.2,30.00,NNW,334,0.0,0.0,26,0.00,,CLR,0.00,VWS V14.01,2013-10-06 09:24:00,
2013-10-06 02:29:00,55.4,21.1,30.00,NNW,334,0.0,0.0,26,0.00,,CLR,0.00,VWS V14.01,2013-10-06 09:29:00,
2013-10-06 02:34:00,55.2,20.9,30.00,NNW,334,0.0,0.0,26,0.00,,CLR,0.00,VWS V14.01,2013-10-06 09:34:00,
2013-10-06 02:40:00,55.0,21.7,30.00,NNW,334,0.0,0.0,27,0.00,,CLR,0.00,VWS V14.01,2013-10-06 09:40:00,
2013-10-06 02:45:00,54.8,21.5,30.00,NNW,334,0.0,0.0,27,0.00,,CLR,0.00,VWS V14.01,2013-10-06 09:45:00,
2013-10-06 02:50:00,54.8,21.5,30.00,NNW,334,0.0,0.0,27,0.00,,CLR,0.00,VWS V14.01,2013-10-06 09:50:00,
2013-10-06 02:55:00,54.7,21.4,30.00,NNW,334,0.0,0.0,27,0.00,,CLR,0.00,VWS V14.01,2013-10-06 09:55:00,
2013-10-06 03:00:00,54.7,21.4,30.00,NNW,334,2.2,2.2,27,0.00,,CLR,0.00,VWS V14.01,2013-10-06 10:00:00,
2013-10-06 03:06:00,54.8,21.5,30.00,NNW,334,0.0,0.0,27,0.00,,CLR,0.00,VWS V14.01,2013-10-06 10:06:00,
2013-10-06 03:12:00,54.8,20.6,30.00,NNW,334,0.0,0.0,26,0.00,,CLR,0.00,VWS V14.01,2013-10-06 10:12:00,
2013-10-06 03:17:00,54.8,20.6,30.00,NNW,334,3.6,3.6,26,0.00,,CLR,0.00,VWS V14.01,2013-10-06 10:17:00,
2013-10-06 03:22:00,55.0,19.9,30.00,NNW,334,0.0,3.1,25,0.00,,CLR,0.00,VWS V14.01,2013-10-06 10:22:00,
2013-10-06 03:27:00,55.2,20.0,30.00,NNW,334,2.7,2.7,25,0.00,,CLR,0.00,VWS V14.01,2013-10-06 10:27:00,
2013-10-06 03:32:00,55.2,20.0,30.00,NNW,334,2.7,3.6,25,0.00,,CLR,0.00,VWS V14.01,2013-10-06 10:32:00,
2013-10-06 03:38:00,55.6,19.4,30.00,NNW,334,3.6,3.6,24,0.00,,CLR,0.00,VWS V14.01,2013-10-06 10:38:00,
2013-10-06 03:43:00,55.6,17.3,30.00,NNW,334,0.0,0.0,22,0.00,,CLR,0.00,VWS V14.01,2013-10-06 10:43:00,
2013-10-06 03:48:00,55.2,17.0,30.00,NNW,334,2.7,2.7,22,0.00,,CLR,0.00,VWS V14.01,2013-10-06 10:48:00,
2013-10-06 03:53:00,55.2,17.0,30.00,NNW,334,0.0,3.1,22,0.00,,CLR,0.00,VWS V14.01,2013-10-06 10:53:00,
2013-10-06 03:59:00,55.2,17.0,30.00,NNW,334,0.0,0.0,22,0.00,,CLR,0.00,VWS V14.01,2013-10-06 10:59:00,
2013-10-06 04:04:00,54.8,16.7,30.00,NNW,334,0.0,0.0,22,0.00,,CLR,0.00,VWS V14.01,2013-10-06 11:04:00,
2013-10-06 04:09:00,54.7,16.6,30.00,NNW,334,0.0,0.0,22,0.00,,CLR,0.00,VWS V14.01,2013-10-06 11:09:00,
2013-10-06 04:14:00,54.7,16.6,30.00,NNW,334,0.0,0.0,22,0.00,,CLR,0.00,VWS V14.01,2013-10-06 11:14:00,
2013-10-06 04:19:00,54.5,16.4,30.00,NNW,334,0.0,0.0,22,0.00,,CLR,0.00,VWS V14.01,2013-10-06 11:19:00,
2013-10-06 04:24:00,54.1,16.1,30.00,NNW,334,0.0,0.0,22,0.00,,CLR,0.00,VWS V14.01,2013-10-06 11:24:00,
2013-10-06 04:30:00,53.9,16.0,30.00,NNW,334,0.0,0.0,22,0.00,,CLR,0.00,VWS V14.01,2013-10-06 11:30:00,
2013-10-06 04:36:00,53.8,15.8,30.00,NNW,334,0.0,0.0,22,0.00,,CLR,0.00,VWS V14.01,2013-10-06 11:36:00,
2013-10-06 04:41:00,53.6,15.7,30.00,NNW,334,0.0,0.0,22,0.00,,CLR,0.00,VWS V14.01,2013-10-06 11:41:00,
2013-10-06 04:47:00,53.2,18.3,30.00,NNW,334,0.0,0.0,25,0.00,,CLR,0.00,VWS V14.01,2013-10-06 11:47:00,
2013-10-06 04:52:00,53.0,19.1,30.00,NNW,334,0.0,0.0,26,0.00,,CLR,0.00,VWS V14.01,2013-10-06 11:52:00,
2013-10-06 04:58:00,52.9,18.9,30.00,NNW,334,0.0,0.0,26,0.00,,CLR,0.00,VWS V14.01,2013-10-06 11:58:00,
2013-10-06 05:04:00,53.0,20.0,30.00,NNW,334,0.0,0.0,27,0.00,,CLR,0.00,VWS V14.01,2013-10-06 12:04:00,
2013-10-06 05:09:00,52.7,18.8,30.00,NNW,334,0.0,0.0,26,0.00,,CLR,0.00,VWS V14.01,2013-10-06 12:09:00,
2013-10-06 05:15:00,52.5,18.6,30.00,NNW,334,0.0,0.0,26,0.00,,CLR,0.00,VWS V14.01,2013-10-06 12:15:00,
2013-10-06 05:20:00,52.5,18.6,30.00,NNW,334,0.0,0.0,26,0.00,,CLR,0.00,VWS V14.01,2013-10-06 12:20:00,
2013-10-06 05:25:00,52.1,19.2,30.00,NNW,334,3.1,3.1,27,0.00,,CLR,0.00,VWS V14.01,2013-10-06 12:25:00,
2013-10-06 05:30:00,51.8,18.9,30.00,NNW,334,0.0,0.0,27,0.00,,CLR,0.00,VWS V14.01,2013-10-06 12:30:00,
2013-10-06 05:35:00,51.6,18.7,30.00,NNW,334,0.0,0.0,27,0.00,,CLR,0.00,VWS V14.01,2013-10-06 12:35:00,
2013-10-06 05:40:00,51.4,18.6,30.00,NNW,334,0.0,0.0,27,0.00,,CLR,0.00,VWS V14.01,2013-10-06 12:40:00,
2013-10-06 05:45:00,51.2,18.4,30.00,NNW,334,0.0,0.0,27,0.00,,CLR,0.00,VWS V14.01,2013-10-06 12:45:00,
2013-10-06 05:51:00,50.9,19.0,30.00,NNW,334,0.0,0.0,28,0.00,,CLR,0.00,VWS V14.01,2013-10-06 12:51:00,
2013-10-06 05:56:00,50.9,19.0,30.00,NNW,334,0.0,0.0,28,0.00,,CLR,0.00,VWS V14.01,2013-10-06 12:56:00,
2013-10-06 06:02:00,50.5,19.5,30.00,NNW,334,0.0,0.0,29,0.00,,CLR,0.00,VWS V14.01,2013-10-06 13:02:00,
2013-10-06 06:07:00,50.3,20.1,30.00,NNW,334,0.0,0.0,30,0.00,,CLR,0.00,VWS V14.01,2013-10-06 13:07:00,
2013-10-06 06:12:00,50.2,19.1,30.00,NNW,334,0.0,0.0,29,0.00,,CLR,0.00,VWS V14.01,2013-10-06 13:12:00,
2013-10-06 06:17:00,50.0,19.8,30.00,NNW,334,0.0,0.0,30,0.00,,CLR,0.00,VWS V14.01,2013-10-06 13:17:00,
2013-10-06 06:22:00,49.8,19.6,30.00,NNW,334,0.0,0.0,30,0.00,,CLR,0.00,VWS V14.01,2013-10-06 13:22:00,
2013-10-06 06:27:00,49.6,21.0,30.00,NNW,334,0.0,0.0,32,0.00,,CLR,0.00,VWS V14.01,2013-10-06 13:27:00,
2013-10-06 06:32:00,49.4,20.8,30.00,NNW,334,0.0,0.0,32,0.00,,CLR,0.00,VWS V14.01,2013-10-06 13:32:00,
2013-10-06 06:38:00,49.4,21.5,30.00,NNW,334,0.0,0.0,33,0.00,,CLR,0.00,VWS V14.01,2013-10-06 13:38:00,
2013-10-06 06:43:00,49.4,22.3,30.00,NNW,334,0.0,0.0,34,0.00,,CLR,0.00,VWS V14.01,2013-10-06 13:43:00,
2013-10-06 06:49:00,49.3,22.8,30.00,NNW,334,0.0,0.0,35,0.00,,CLR,0.00,VWS V14.01,2013-10-06 13:49:00,
2013-10-06 06:54:00,49.3,23.5,30.00,NNW,334,0.0,0.0,36,0.00,,CLR,0.00,VWS V14.01,2013-10-06 13:54:00,
2013-10-06 07:00:00,49.3,23.5,30.00,NNW,334,0.0,0.0,36,0.00,,CLR,0.00,VWS V14.01,2013-10-06 14:00:00,
2013-10-06 07:05:00,49.1,23.3,30.00,NNW,334,0.0,0.0,36,0.00,,CLR,0.00,VWS V14.01,2013-10-06 14:05:00,
2013-10-06 07:11:00,49.3,24.1,30.00,NNW,334,0.0,0.0,37,0.00,,CLR,0.00,VWS V14.01,2013-10-06 14:11:00,
2013-10-06 07:16:00,49.4,23.6,30.00,NNW,334,2.7,3.1,36,0.00,,CLR,0.00,VWS V14.01,2013-10-06 14:16:00,
2013-10-06 07:21:00,50.2,21.5,30.00,NNW,334,4.0,4.0,32,0.00,,CLR,0.00,VWS V14.01,2013-10-06 14:21:00,
2013-10-06 07:26:00,51.1,19.9,30.00,NNW,334,2.7,3.6,29,0.00,,CLR,0.00,VWS V14.01,2013-10-06 14:26:00,
2013-10-06 07:32:00,52.3,19.4,30.00,NNW,334,2.2,3.1,27,0.00,,CLR,0.00,VWS V14.01,2013-10-06 14:32:00,
2013-10-06 07:38:00,53.0,19.1,30.00,NNW,334,4.0,4.0,26,0.00,,CLR,0.00,VWS V14.01,2013-10-06 14:38:00,
2013-10-06 07:43:00,53.9,18.9,30.00,NNW,334,3.6,3.6,25,0.00,,CLR,0.00,VWS V14.01,2013-10-06 14:43:00,
2013-10-06 07:49:00,54.8,16.7,30.03,NNW,339,3.6,5.4,22,0.00,,CLR,0.00,VWS V14.01,2013-10-06 14:49:00,
2013-10-06 07:54:00,55.7,14.1,30.03,North,357,5.4,5.8,19,0.00,,CLR,0.00,VWS V14.01,2013-10-06 14:54:00,
2013-10-06 07:59:00,56.6,14.9,30.03,North,0,3.1,4.9,19,0.00,,CLR,0.00,VWS V14.01,2013-10-06 14:59:00,
2013-10-06 08:04:00,57.4,12.9,30.03,North,0,4.9,5.8,17,0.00,,CLR,0.00,VWS V14.01,2013-10-06 15:04:00,
2013-10-06 08:09:00,58.3,13.7,30.03,North,357,3.1,3.6,17,0.00,,CLR,0.00,VWS V14.01,2013-10-06 15:09:00,
2013-10-06 08:14:00,59.3,13.2,30.03,North,353,4.5,4.9,16,0.00,,CLR,0.00,VWS V14.01,2013-10-06 15:14:00,
2013-10-06 08:19:00,60.1,10.7,30.03,NNW,342,3.1,4.9,14,0.00,,CLR,0.00,VWS V14.01,2013-10-06 15:19:00,
2013-10-06 08:24:00,61.0,9.8,30.03,NW,314,3.1,3.6,13,0.00,,CLR,0.00,VWS V14.01,2013-10-06 15:24:00,
2013-10-06 08:29:00,61.7,10.4,30.03,NNW,334,2.2,4.0,13,0.00,,CLR,0.00,VWS V14.01,2013-10-06 15:29:00,
2013-10-06 08:34:00,62.4,10.9,30.03,NNW,344,5.4,5.4,13,0.00,,CLR,0.00,VWS V14.01,2013-10-06 15:34:00,
2013-10-06 08:39:00,63.5,11.8,30.03,NNW,341,5.4,5.8,13,0.00,,CLR,0.00,VWS V14.01,2013-10-06 15:39:00,
2013-10-06 08:44:00,64.2,10.6,30.03,NNW,344,4.5,4.9,12,0.00,,CLR,0.00,VWS V14.01,2013-10-06 15:44:00,
2013-10-06 08:49:00,65.1,11.3,30.03,NNW,339,3.1,3.1,12,0.00,,CLR,0.00,VWS V14.01,2013-10-06 15:49:00,
2013-10-06 08:54:00,66.2,12.1,30.03,NNW,339,2.7,3.6,12,0.00,,CLR,0.00,VWS V14.01,2013-10-06 15:54:00,
2013-10-06 08:59:00,67.1,12.8,30.03,NNW,339,2.2,2.7,12,0.00,,CLR,0.00,VWS V14.01,2013-10-06 15:59:00,
2013-10-06 09:04:00,68.2,13.6,30.03,NNW,339,2.7,3.1,12,0.00,,CLR,0.00,VWS V14.01,2013-10-06 16:04:00,
2013-10-06 09:09:00,69.2,14.5,30.03,NNW,339,4.0,4.0,12,0.00,,CLR,0.00,VWS V14.01,2013-10-06 16:09:00,
2013-10-06 09:14:00,70.1,13.2,30.03,NNW,339,3.6,4.0,11,0.00,,CLR,0.00,VWS V14.01,2013-10-06 16:14:00,
2013-10-06 09:19:00,70.9,13.8,30.03,North,0,3.1,5.4,11,0.00,,CLR,0.00,VWS V14.01,2013-10-06 16:19:00,
2013-10-06 09:24:00,71.4,14.2,30.03,North,353,3.6,4.9,11,0.00,,CLR,0.00,VWS V14.01,2013-10-06 16:24:00,
2013-10-06 09:29:00,72.3,14.9,30.03,North,353,4.0,4.0,11,0.00,,CLR,0.00,VWS V14.01,2013-10-06 16:29:00,
2013-10-06 09:34:00,73.0,15.4,30.03,NNW,346,3.6,4.0,11,0.00,,CLR,0.00,VWS V14.01,2013-10-06 16:34:00,
2013-10-06 09:39:00,73.7,13.8,30.03,NNW,342,4.9,4.9,10,0.00,,CLR,0.00,VWS V14.01,2013-10-06 16:39:00,
2013-10-06 09:44:00,74.5,9.3,30.03,North,353,5.4,6.7,8,0.00,,CLR,0.00,VWS V14.01,2013-10-06 16:44:00,
2013-10-06 09:49:00,75.5,15.2,30.03,NNW,348,5.4,5.4,10,0.00,,CLR,0.00,VWS V14.01,2013-10-06 16:49:00,
2013-10-06 09:54:00,76.4,15.9,30.03,North,350,0.0,2.7,10,0.00,,CLR,0.00,VWS V14.01,2013-10-06 16:54:00,
2013-10-06 09:59:00,77.3,16.6,30.03,North,350,0.0,3.1,10,0.00,,CLR,0.00,VWS V14.01,2013-10-06 16:59:00,
2013-10-06 10:04:00,78.2,17.2,30.03,NNW,333,3.6,3.6,10,0.00,,CLR,0.00,VWS V14.01,2013-10-06 17:04:00,
2013-10-06 10:09:00,79.0,15.4,30.03,NNW,334,4.0,4.0,9,0.00,,CLR,0.00,VWS V14.01,2013-10-06 17:09:00,
2013-10-06 10:14:00,79.9,16.0,30.03,NNW,334,2.2,3.1,9,0.00,,CLR,0.00,VWS V14.01,2013-10-06 17:14:00,
2013-10-06 10:19:00,80.2,16.3,30.03,NW,316,3.6,4.0,9,0.00,,CLR,0.00,VWS V14.01,2013-10-06 17:19:00,
2013-10-06 10:24:00,80.8,16.7,30.03,NNW,340,4.9,6.3,9,0.00,,CLR,0.00,VWS V14.01,2013-10-06 17:24:00,
2013-10-06 10:29:00,80.9,16.9,30.03,NNW,333,4.9,5.8,9,0.00,,CLR,0.00,VWS V14.01,2013-10-06 17:29:00,
2013-10-06 10:34:00,81.8,17.5,30.00,NNW,341,3.6,5.4,9,0.00,,CLR,0.00,VWS V14.01,2013-10-06 17:34:00,
2013-10-06 10:39:00,82.4,15.2,30.00,North,0,3.6,5.4,8,0.00,,CLR,0.00,VWS V14.01,2013-10-06 17:39:00,
2013-10-06 10:44:00,83.5,16.0,30.00,North,353,4.0,5.8,8,0.00,,CLR,0.00,VWS V14.01,2013-10-06 17:44:00,
2013-10-06 10:49:00,84.0,16.4,30.00,NW,326,6.3,6.3,8,0.00,,CLR,0.00,VWS V14.01,2013-10-06 17:49:00,
2013-10-06 10:54:00,84.7,17.0,30.00,NNW,331,5.8,6.3,8,0.00,,CLR,0.00,VWS V14.01,2013-10-06 17:54:00,
2013-10-06 10:59:00,85.1,17.2,30.00,NNE,19,8.3,8.3,8,0.00,,CLR,0.00,VWS V14.01,2013-10-06 17:59:00,
2013-10-06 11:04:00,85.6,17.6,30.00,NNE,30,5.4,7.6,8,0.00,,CLR,0.00,VWS V14.01,2013-10-06 18:04:00,
2013-10-06 11:09:00,86.0,17.9,30.00,North,0,5.4,7.6,8,0.00,,CLR,0.00,VWS V14.01,2013-10-06 18:09:00,
2013-10-06 11:14:00,86.0,17.9,30.00,North,353,6.3,6.3,8,0.00,,CLR,0.00,VWS V14.01,2013-10-06 18:14:00,
2013-10-06 11:19:00,86.7,18.4,30.00,NE,39,7.2,8.3,8,0.00,,CLR,0.00,VWS V14.01,2013-10-06 18:19:00,
2013-10-06 11:24:00,87.4,19.0,30.00,NNW,333,5.4,5.8,8,0.00,,CLR,0.00,VWS V14.01,2013-10-06 18:24:00,
2013-10-06 11:29:00,87.4,19.0,30.00,NNE,17,3.6,7.6,8,0.00,,CLR,0.00,VWS V14.01,2013-10-06 18:29:00,
2013-10-06 11:34:00,87.8,16.1,30.00,NW,316,4.0,4.0,7,0.00,,CLR,0.00,VWS V14.01,2013-10-06 18:34:00,
2013-10-06 11:39:00,88.0,16.3,30.00,North,357,3.1,7.6,7,0.00,,CLR,0.00,VWS V14.01,2013-10-06 18:39:00,
2013-10-06 11:44:00,88.5,16.7,30.00,NNW,346,8.3,8.3,7,0.00,,CLR,0.00,VWS V14.01,2013-10-06 18:44:00,
2013-10-06 11:49:00,89.0,17.1,29.97,NW,326,6.3,8.1,7,0.00,,CLR,0.00,VWS V14.01,2013-10-06 18:49:00,
2013-10-06 11:54:00,89.2,17.2,29.97,NNW,333,5.4,7.6,7,0.00,,CLR,0.00,VWS V14.01,2013-10-06 18:54:00,
2013-10-06 11:59:00,89.6,17.5,29.97,North,353,3.1,6.3,7,0.00,,CLR,0.00,VWS V14.01,2013-10-06 18:59:00,
2013-10-06 12:04:00,89.9,17.7,29.97,ENE,59,6.3,6.3,7,0.00,,CLR,0.00,VWS V14.01,2013-10-06 19:04:00,
2013-10-06 12:09:00,89.9,17.7,29.97,NNE,15,3.1,6.3,7,0.00,,CLR,0.00,VWS V14.01,2013-10-06 19:09:00,
2013-10-06 12:14:00,90.7,18.2,29.97,North,357,2.7,5.4,7,0.00,,CLR,0.00,VWS V14.01,2013-10-06 19:14:00,
2013-10-06 12:19:00,91.7,15.5,29.97,NE,41,4.9,5.8,6,0.00,,CLR,0.00,VWS V14.01,2013-10-06 19:19:00,
2013-10-06 12:24:00,90.8,18.4,29.97,NW,323,3.1,8.1,7,0.00,,CLR,0.00,VWS V14.01,2013-10-06 19:24:00,
2013-10-06 12:29:00,90.5,18.1,29.97,North,353,4.9,6.3,7,0.00,,CLR,0.00,VWS V14.01,2013-10-06 19:29:00,
2013-10-06 12:34:00,91.6,15.3,29.97,NNW,339,6.3,7.6,6,0.00,,CLR,0.00,VWS V14.01,2013-10-06 19:34:00,
2013-10-06 12:39:00,91.9,15.6,29.97,North,353,4.5,6.3,6,0.00,,CLR,0.00,VWS V14.01,2013-10-06 19:39:00,
2013-10-06 12:44:00,92.6,16.1,29.97,WNW,301,4.9,4.9,6,0.00,,CLR,0.00,VWS V14.01,2013-10-06 19:44:00,
2013-10-06 12:49:00,91.9,15.6,29.97,WNW,286,3.1,6.3,6,0.00,,CLR,0.00,VWS V14.01,2013-10-06 19:49:00,
2013-10-06 12:54:00,92.3,15.8,29.97,West,273,2.2,5.8,6,0.00,,CLR,0.00,VWS V14.01,2013-10-06 19:54:00,
2013-10-06 12:59:00,91.4,15.2,29.97,West,267,4.9,5.4,6,0.00,,CLR,0.00,VWS V14.01,2013-10-06 19:59:00,
2013-10-06 13:04:00,92.8,16.2,29.94,North,357,5.4,5.8,6,0.00,,CLR,0.00,VWS V14.01,2013-10-06 20:04:00,
2013-10-06 13:09:00,92.8,16.2,29.94,NW,316,0.0,4.0,6,0.00,,CLR,0.00,VWS V14.01,2013-10-06 20:09:00,
2013-10-06 13:14:00,92.8,16.2,29.94,West,264,6.3,6.3,6,0.00,,CLR,0.00,VWS V14.01,2013-10-06 20:14:00,
2013-10-06 13:19:00,91.7,15.5,29.94,West,280,3.1,6.3,6,0.00,,CLR,0.00,VWS V14.01,2013-10-06 20:19:00,
2013-10-06 13:25:00,91.7,15.5,29.94,West,275,6.3,10.1,6,0.00,,CLR,0.00,VWS V14.01,2013-10-06 20:25:00,
2013-10-06 13:30:00,92.3,15.8,29.94,SE,137,4.0,4.0,6,0.00,,CLR,0.00,VWS V14.01,2013-10-06 20:30:00,
2013-10-06 13:35:00,94.1,17.1,29.94,NNW,327,0.0,3.6,6,0.00,,CLR,0.00,VWS V14.01,2013-10-06 20:35:00,
2013-10-06 13:40:00,95.0,17.8,29.94,West,269,3.6,4.0,6,0.00,,CLR,0.00,VWS V14.01,2013-10-06 20:40:00,
2013-10-06 13:45:00,94.4,17.4,29.94,NNW,335,3.6,5.4,6,0.00,,CLR,0.00,VWS V14.01,2013-10-06 20:45:00,
2013-10-06 13:50:00,93.0,16.4,29.94,SW,215,3.1,3.6,6,0.00,,CLR,0.00,VWS V14.01,2013-10-06 20:50:00,
2013-10-06 13:55:00,94.3,17.3,29.94,West,265,4.0,5.8,6,0.00,,CLR,0.00,VWS V14.01,2013-10-06 20:55:00,
2013-10-06 14:00:00,94.1,17.1,29.91,WSW,253,0.0,5.4,6,0.00,,CLR,0.00,VWS V14.01,2013-10-06 21:00:00,
2013-10-06 14:05:00,95.5,18.2,29.91,WNW,303,3.6,4.0,6,0.00,,CLR,0.00,VWS V14.01,2013-10-06 21:05:00,
2013-10-06 14:10:00,96.6,14.7,29.91,WNW,302,6.3,6.3,5,0.00,,CLR,0.00,VWS V14.01,2013-10-06 21:10:00,
2013-10-06 14:15:00,96.6,14.7,29.91,WNW,286,3.6,10.1,5,0.00,,CLR,0.00,VWS V14.01,2013-10-06 21:15:00,
2013-10-06 14:20:00,96.1,18.5,29.91,SW,236,2.2,3.1,6,0.00,,CLR,0.00,VWS V14.01,2013-10-06 21:20:00,
2013-10-06 14:25:00,95.5,18.2,29.91,WNW,302,5.4,5.4,6,0.00,,CLR,0.00,VWS V14.01,2013-10-06 21:25:00,
2013-10-06 14:30:00,93.4,16.6,29.91,WNW,284,0.0,5.4,6,0.00,,CLR,0.00,VWS V14.01,2013-10-06 21:30:00,
2013-10-06 14:35:00,94.8,17.6,29.91,SW,230,4.9,6.3,6,0.00,,CLR,0.00,VWS V14.01,2013-10-06 21:35:00,
2013-10-06 14:40:00,95.0,17.8,29.91,NW,314,6.3,8.7,6,0.00,,CLR,0.00,VWS V14.01,2013-10-06 21:40:00,
2013-10-06 14:45:00,95.3,18.0,29.91,NW,307,4.9,4.9,6,0.00,,CLR,0.00,VWS V14.01,2013-10-06 21:45:00,
2013-10-06 14:50:00,95.2,17.9,29.91,NNW,346,3.1,5.4,6,0.00,,CLR,0.00,VWS V14.01,2013-10-06 21:50:00,
2013-10-06 14:55:00,95.0,17.8,29.91,SW,217,3.6,5.4,6,0.00,,CLR,0.00,VWS V14.01,2013-10-06 21:55:00,
2013-10-06 15:00:00,93.5,16.7,29.91,West,267,6.7,7.2,6,0.00,,CLR,0.00,VWS V14.01,2013-10-06 22:00:00,
2013-10-06 15:06:00,92.3,15.8,29.91,SW,227,5.8,8.1,6,0.00,,CLR,0.00,VWS V14.01,2013-10-06 22:06:00,
2013-10-06 15:11:00,93.4,16.6,29.91,South,179,5.8,8.1,6,0.00,,CLR,0.00,VWS V14.01,2013-10-06 22:11:00,
2013-10-06 15:16:00,91.7,15.5,29.91,SSW,205,5.4,6.3,6,0.00,,CLR,0.00,VWS V14.01,2013-10-06 22:16:00,
2013-10-06 15:21:00,93.9,17.0,29.91,South,191,8.1,8.1,6,0.00,,CLR,0.00,VWS V14.01,2013-10-06 22:21:00,
2013-10-06 15:26:00,94.1,17.1,29.91,SW,216,5.8,8.1,6,0.00,,CLR,0.00,VWS V14.01,2013-10-06 22:26:00,
2013-10-06 15:31:00,93.0,16.4,29.88,SSW,213,2.2,5.4,6,0.00,,CLR,0.00,VWS V14.01,2013-10-06 22:31:00,
2013-10-06 15:36:00,92.8,16.2,29.88,NW,324,5.8,8.1,6,0.00,,CLR,0.00,VWS V14.01,2013-10-06 22:36:00,
2013-10-06 15:41:00,91.9,15.6,29.88,WSW,256,0.0,3.6,6,0.00,,CLR,0.00,VWS V14.01,2013-10-06 22:41:00,
2013-10-06 15:46:00,92.3,15.8,29.88,West,272,4.9,5.8,6,0.00,,CLR,0.00,VWS V14.01,2013-10-06 22:46:00,
2013-10-06 15:51:00,91.9,15.6,29.88,SW,225,4.0,6.3,6,0.00,,CLR,0.00,VWS V14.01,2013-10-06 22:51:00,
2013-10-06 15:56:00,90.3,18.0,29.88,NW,324,3.6,7.6,7,0.00,,CLR,0.00,VWS V14.01,2013-10-06 22:56:00,
2013-10-06 16:01:00,90.5,18.1,29.88,West,262,3.1,3.6,7,0.00,,CLR,0.00,VWS V14.01,2013-10-06 23:01:00,
2013-10-06 16:06:00,90.8,18.4,29.88,West,281,4.9,5.8,7,0.00,,CLR,0.00,VWS V14.01,2013-10-06 23:06:00,
2013-10-06 16:12:00,91.2,15.1,29.88,WNW,301,6.3,6.3,6,0.00,,CLR,0.00,VWS V14.01,2013-10-06 23:12:00,
2013-10-06 16:17:00,90.7,18.2,29.88,WNW,289,6.3,8.1,7,0.00,,CLR,0.00,VWS V14.01,2013-10-06 23:17:00,
2013-10-06 16:22:00,89.4,17.3,29.88,West,278,8.3,10.1,7,0.00,,CLR,0.00,VWS V14.01,2013-10-06 23:22:00,
2013-10-06 16:27:00,90.3,18.0,29.88,NW,324,5.4,8.7,7,0.00,,CLR,0.00,VWS V14.01,2013-10-06 23:27:00,
2013-10-06 16:32:00,89.2,17.2,29.88,West,266,7.6,10.1,7,0.00,,CLR,0.00,VWS V14.01,2013-10-06 23:32:00,
2013-10-06 16:37:00,88.1,16.4,29.88,NW,306,9.2,11.0,7,0.00,,CLR,0.00,VWS V14.01,2013-10-06 23:37:00,
2013-10-06 16:42:00,87.6,16.0,29.88,WSW,252,6.3,8.1,7,0.00,,CLR,0.00,VWS V14.01,2013-10-06 23:42:00,
2013-10-06 16:47:00,87.4,19.0,29.88,NW,323,6.3,7.6,8,0.00,,CLR,0.00,VWS V14.01,2013-10-06 23:47:00,
2013-10-06 16:52:00,87.6,16.0,29.88,WNW,287,7.6,8.1,7,0.00,,CLR,0.00,VWS V14.01,2013-10-06 23:52:00,
2013-10-06 16:57:00,86.0,17.9,29.88,SW,219,5.4,5.4,8,0.00,,CLR,0.00,VWS V14.01,2013-10-06 23:57:00,
2013-10-06 17:02:00,86.0,17.9,29.88,WSW,258,4.9,5.8,8,0.00,,CLR,0.00,VWS V14.01,2013-10-07 00:02:00,
2013-10-06 17:07:00,85.4,17.5,29.88,West,275,8.7,8.7,8,0.00,,CLR,0.00,VWS V14.01,2013-10-07 00:07:00,
2013-10-06 17:12:00,85.3,17.4,29.88,West,265,8.1,11.0,8,0.00,,CLR,0.00,VWS V14.01,2013-10-07 00:12:00,
2013-10-06 17:17:00,84.5,16.8,29.88,WNW,302,5.8,8.1,8,0.00,,CLR,0.00,VWS V14.01,2013-10-07 00:17:00,
2013-10-06 17:22:00,83.6,16.2,29.88,WSW,242,10.5,10.5,8,0.00,,CLR,0.00,VWS V14.01,2013-10-07 00:22:00,
2013-10-06 17:27:00,82.4,15.2,29.88,NW,310,8.1,8.7,8,0.00,,CLR,0.00,VWS V14.01,2013-10-07 00:27:00,
2013-10-06 17:33:00,80.8,16.7,29.88,SW,220,10.1,12.8,9,0.00,,CLR,0.00,VWS V14.01,2013-10-07 00:33:00,
2013-10-06 17:38:00,80.9,16.9,29.88,West,270,8.1,8.7,9,0.00,,CLR,0.00,VWS V14.01,2013-10-07 00:38:00,
2013-10-06 17:43:00,80.6,16.6,29.88,West,276,3.6,11.0,9,0.00,,CLR,0.00,VWS V14.01,2013-10-07 00:43:00,
2013-10-06 17:48:00,80.6,16.6,29.88,WNW,289,5.8,8.7,9,0.00,,CLR,0.00,VWS V14.01,2013-10-07 00:48:00,
2013-10-06 17:53:00,79.5,15.8,29.88,WNW,299,3.6,5.8,9,0.00,,CLR,0.00,VWS V14.01,2013-10-07 00:53:00,
2013-10-06 17:58:00,79.5,15.8,29.88,NNW,327,5.4,6.3,9,0.00,,CLR,0.00,VWS V14.01,2013-10-07 00:58:00,
2013-10-06 18:03:00,78.6,15.1,29.88,WSW,253,5.4,9.2,9,0.00,,CLR,0.00,VWS V14.01,2013-10-07 01:03:00,
2013-10-06 18:08:00,77.3,8.5,29.88,West,261,8.7,10.5,7,0.00,,CLR,0.00,VWS V14.01,2013-10-07 01:08:00,
2013-10-06 18:13:00,77.0,8.2,29.88,WNW,285,4.0,7.6,7,0.00,,CLR,0.00,VWS V14.01,2013-10-07 01:13:00,
2013-10-06 18:18:00,76.6,10.9,29.88,WNW,286,5.8,5.8,8,0.00,,CLR,0.00,VWS V14.01,2013-10-07 01:18:00,
2013-10-06 18:23:00,75.9,10.4,29.88,NW,326,2.7,7.6,8,0.00,,CLR,0.00,VWS V14.01,2013-10-07 01:23:00,
2013-10-06 18:28:00,75.5,10.1,29.88,NW,306,4.0,5.4,8,0.00,,CLR,0.00,VWS V14.01,2013-10-07 01:28:00,
2013-10-06 18:33:00,75.2,9.9,29.88,West,273,3.1,6.7,8,0.00,,CLR,0.00,VWS V14.01,2013-10-07 01:33:00,
2013-10-06 18:38:00,74.5,9.3,29.88,West,265,5.8,8.1,8,0.00,,CLR,0.00,VWS V14.01,2013-10-07 01:38:00,
2013-10-06 18:43:00,73.9,8.9,29.88,WNW,284,4.0,4.0,8,0.00,,CLR,0.00,VWS V14.01,2013-10-07 01:43:00,
2013-10-06 18:48:00,73.6,13.7,29.88,WNW,286,5.8,7.6,10,0.00,,CLR,0.00,VWS V14.01,2013-10-07 01:48:00,
2013-10-06 18:53:00,73.0,15.4,29.88,WNW,296,3.1,6.3,11,0.00,,CLR,0.00,VWS V14.01,2013-10-07 01:53:00,
2013-10-06 18:58:00,72.8,15.3,29.88,NW,310,3.1,4.0,11,0.00,,CLR,0.00,VWS V14.01,2013-10-07 01:58:00,
2013-10-06 19:03:00,72.3,14.9,29.88,NW,307,4.9,5.8,11,0.00,,CLR,0.00,VWS V14.01,2013-10-07 02:03:00,
2013-10-06 19:08:00,72.1,14.8,29.88,NW,304,0.0,5.4,11,0.00,,CLR,0.00,VWS V14.01,2013-10-07 02:08:00,
2013-10-06 19:13:00,71.8,14.5,29.88,NNW,329,4.9,6.3,11,0.00,,CLR,0.00,VWS V14.01,2013-10-07 02:13:00,
2013-10-06 19:18:00,71.4,14.2,29.88,North,353,3.1,3.6,11,0.00,,CLR,0.00,VWS V14.01,2013-10-07 02:18:00,
2013-10-06 19:23:00,71.2,14.1,29.88,NNW,334,0.0,2.7,11,0.00,,CLR,0.00,VWS V14.01,2013-10-07 02:23:00,
2013-10-06 19:28:00,70.9,13.8,29.88,North,353,2.7,4.0,11,0.00,,CLR,0.00,VWS V14.01,2013-10-07 02:28:00,
2013-10-06 19:33:00,70.7,13.6,29.88,NW,324,0.0,3.6,11,0.00,,CLR,0.00,VWS V14.01,2013-10-07 02:33:00,
2013-10-06 19:38:00,70.5,13.5,29.88,NW,305,3.1,3.1,11,0.00,,CLR,0.00,VWS V14.01,2013-10-07 02:38:00,
2013-10-06 19:43:00,70.1,13.2,29.88,NNW,348,2.7,3.1,11,0.00,,CLR,0.00,VWS V14.01,2013-10-07 02:43:00,
2013-10-06 19:48:00,69.8,12.9,29.88,NW,316,3.6,3.6,11,0.00,,CLR,0.00,VWS V14.01,2013-10-07 02:48:00,
2013-10-06 19:53:00,69.8,12.9,29.88,NW,315,3.6,5.4,11,0.00,,CLR,0.00,VWS V14.01,2013-10-07 02:53:00,
2013-10-06 19:58:00,69.8,12.9,29.88,NW,309,5.8,7.6,11,0.00,,CLR,0.00,VWS V14.01,2013-10-07 02:58:00,
2013-10-06 20:03:00,69.8,12.9,29.88,West,261,5.8,7.2,11,0.00,,CLR,0.00,VWS V14.01,2013-10-07 03:03:00,
2013-10-06 20:08:00,69.6,12.8,29.88,NNW,336,5.8,5.8,11,0.00,,CLR,0.00,VWS V14.01,2013-10-07 03:08:00,
2013-10-06 20:13:00,69.2,18.0,29.88,NW,311,4.9,5.4,14,0.00,,CLR,0.00,VWS V14.01,2013-10-07 03:13:00,
2013-10-06 20:18:00,69.1,22.5,29.88,West,277,2.7,3.6,17,0.00,,CLR,0.00,VWS V14.01,2013-10-07 03:18:00,
2013-10-06 20:23:00,68.9,25.0,29.88,West,267,3.6,5.4,19,0.00,,CLR,0.00,VWS V14.01,2013-10-07 03:23:00,
2013-10-06 20:28:00,68.7,24.8,29.88,West,260,3.6,5.4,19,0.00,,CLR,0.00,VWS V14.01,2013-10-07 03:28:00,
2013-10-06 20:33:00,68.5,28.2,29.88,WSW,253,0.0,0.0,22,0.00,,CLR,0.00,VWS V14.01,2013-10-07 03:33:00,
2013-10-06 20:38:00,68.3,28.0,29.88,WSW,258,0.0,0.0,22,0.00,,CLR,0.00,VWS V14.01,2013-10-07 03:38:00,
2013-10-06 20:43:00,68.2,27.9,29.88,WSW,258,0.0,0.0,22,0.00,,CLR,0.00,VWS V14.01,2013-10-07 03:43:00,
2013-10-06 20:48:00,68.0,27.8,29.91,West,259,0.0,5.8,22,0.00,,CLR,0.00,VWS V14.01,2013-10-07 03:48:00,
2013-10-06 20:53:00,67.8,27.6,29.91,West,259,0.0,0.0,22,0.00,,CLR,0.00,VWS V14.01,2013-10-07 03:53:00,
2013-10-06 20:58:00,67.6,27.5,29.91,West,272,0.0,0.0,22,0.00,,CLR,0.00,VWS V14.01,2013-10-07 03:58:00,
2013-10-06 21:01:00,67.6,27.5,29.91,WNW,295,0.0,2.2,22,0.00,,CLR,0.00,VWS V14.01,2013-10-07 04:01:00,
2013-10-06 21:02:00,67.6,27.5,29.91,WNW,287,0.0,0.0,22,0.00,,CLR,0.00,VWS V14.01,2013-10-07 04:02:00,
2013-10-06 21:05:00,67.6,27.5,29.91,West,272,0.0,0.0,22,0.00,,CLR,0.00,VWS V14.01,2013-10-07 04:05:00,
2013-10-06 21:06:00,67.6,27.5,29.91,NNW,333,0.0,0.0,22,0.00,,CLR,0.00,VWS V14.01,2013-10-07 04:06:00,
2013-10-06 21:11:00,67.3,27.1,29.91,North,8,0.0,0.0,22,0.00,,CLR,0.00,VWS V14.01,2013-10-07 04:11:00,
2013-10-06 21:15:00,67.1,27.0,29.91,North,8,0.0,0.0,22,0.00,,CLR,0.00,VWS V14.01,2013-10-07 04:15:00,
2013-10-06 21:20:00,66.7,26.7,29.91,ENE,57,0.0,2.7,22,0.00,,CLR,0.00,VWS V14.01,2013-10-07 04:20:00,
2013-10-06 21:25:00,66.4,27.5,29.91,ENE,57,0.0,0.0,23,0.00,,CLR,0.00,VWS V14.01,2013-10-07 04:25:00,
2013-10-06 21:30:00,66.0,27.2,29.91,NE,55,0.0,2.7,23,0.00,,CLR,0.00,VWS V14.01,2013-10-07 04:30:00,
2013-10-06 21:35:00,65.6,26.9,29.91,ENE,57,0.0,0.0,23,0.00,,CLR,0.00,VWS V14.01,2013-10-07 04:35:00,
2013-10-06 21:40:00,65.3,26.6,29.91,ENE,57,0.0,0.0,23,0.00,,CLR,0.00,VWS V14.01,2013-10-07 04:40:00,
2013-10-06 21:45:00,65.1,27.4,29.91,ENE,57,0.0,0.0,24,0.00,,CLR,0.00,VWS V14.01,2013-10-07 04:45:00,
2013-10-06 21:50:00,64.9,27.3,29.91,ENE,57,0.0,0.0,24,0.00,,CLR,0.00,VWS V14.01,2013-10-07 04:50:00,
2013-10-06 21:56:00,64.7,27.1,29.91,ENE,57,0.0,0.0,24,0.00,,CLR,0.00,VWS V14.01,2013-10-07 04:56:00,
2013-10-06 22:01:00,64.6,27.0,29.91,ENE,57,0.0,0.0,24,0.00,,CLR,0.00,VWS V14.01,2013-10-07 05:01:00,
2013-10-06 22:06:00,64.2,26.7,29.91,ENE,58,0.0,0.0,24,0.00,,CLR,0.00,VWS V14.01,2013-10-07 05:06:00,
2013-10-06 22:11:00,64.0,27.5,29.91,ENE,58,0.0,0.0,25,0.00,,CLR,0.00,VWS V14.01,2013-10-07 05:11:00,
2013-10-06 22:16:00,64.0,29.4,29.91,ENE,58,0.0,0.0,27,0.00,,CLR,0.00,VWS V14.01,2013-10-07 05:16:00,
2013-10-06 22:21:00,63.8,29.2,29.91,ENE,72,0.0,0.0,27,0.00,,CLR,0.00,VWS V14.01,2013-10-07 05:21:00,
2013-10-06 22:26:00,63.7,29.1,29.91,ENE,72,0.0,0.0,27,0.00,,CLR,0.00,VWS V14.01,2013-10-07 05:26:00,
2013-10-06 22:31:00,63.5,28.9,29.91,ENE,73,0.0,0.0,27,0.00,,CLR,0.00,VWS V14.01,2013-10-07 05:31:00,
2013-10-06 22:36:00,63.5,30.7,29.91,ENE,73,0.0,0.0,29,0.00,,CLR,0.00,VWS V14.01,2013-10-07 05:36:00,
2013-10-06 22:41:00,63.3,29.7,29.91,ENE,73,0.0,0.0,28,0.00,,CLR,0.00,VWS V14.01,2013-10-07 05:41:00,
2013-10-06 22:46:00,63.1,29.5,29.91,ENE,72,0.0,0.0,28,0.00,,CLR,0.00,VWS V14.01,2013-10-07 05:46:00,
2013-10-06 22:51:00,62.8,28.3,29.91,ENE,72,0.0,0.0,27,0.00,,CLR,0.00,VWS V14.01,2013-10-07 05:51:00,
2013-10-06 22:56:00,62.6,28.2,29.91,ENE,72,0.0,0.0,27,0.00,,CLR,0.00,VWS V14.01,2013-10-07 05:56:00,
2013-10-06 23:01:00,62.4,32.2,29.91,ENE,72,0.0,0.0,32,0.00,,CLR,0.00,VWS V14.01,2013-10-07 06:01:00,
2013-10-06 23:06:00,62.2,32.0,29.91,ENE,72,0.0,0.0,32,0.00,,CLR,0.00,VWS V14.01,2013-10-07 06:06:00,
2013-10-06 23:11:00,61.9,30.9,29.91,ENE,72,0.0,0.0,31,0.00,,CLR,0.00,VWS V14.01,2013-10-07 06:11:00,
2013-10-06 23:16:00,61.7,31.5,29.91,ENE,72,0.0,0.0,32,0.00,,CLR,0.00,VWS V14.01,2013-10-07 06:16:00,
2013-10-06 23:21:00,61.3,31.2,29.91,ENE,72,0.0,0.0,32,0.00,,CLR,0.00,VWS V14.01,2013-10-07 06:21:00,
2013-10-06 23:26:00,61.1,31.1,29.91,ENE,72,0.0,0.0,32,0.00,,CLR,0.00,VWS V14.01,2013-10-07 06:26:00,
2013-10-06 23:31:00,61.1,31.8,29.88,ENE,72,0.0,0.0,33,0.00,,CLR,0.00,VWS V14.01,2013-10-07 06:31:00,
2013-10-06 23:36:00,61.0,31.7,29.88,ENE,72,0.0,0.0,33,0.00,,CLR,0.00,VWS V14.01,2013-10-07 06:36:00,
2013-10-06 23:41:00,60.6,31.4,29.88,ENE,72,0.0,0.0,33,0.00,,CLR,0.00,VWS V14.01,2013-10-07 06:41:00,
2013-10-06 23:46:00,60.4,31.9,29.88,ENE,72,0.0,0.0,34,0.00,,CLR,0.00,VWS V14.01,2013-10-07 06:46:00,
2013-10-06 23:51:00,60.2,31.8,29.88,ENE,72,0.0,0.0,34,0.00,,CLR,0.00,VWS V14.01,2013-10-07 06:51:00,
2013-10-06 23:56:00,60.1,31.6,29.88,ENE,72,0.0,0.0,34,0.00,,CLR,0.00,VWS V14.01,2013-10-07 06:56:00,